map of ZAZ home
Great Circle Mapper logo
ZAZ - Airport
Location
City:  Zaragoza, Aragón, Spain
Name:Zaragoza Airport
Old (Alt.):Zaragoza AB
ICAO:LEZG
IATA:ZAZ

Details
Type:Airport (Aerodrome, Airfield)
Use:Public/Civil, Military
Latitude:41°39'58"N (41.666242)
Longitude:1°02'30"W (-1.041552)
Datum:WGS 1984
Elevation:863 ft (263 m)
Variation:0.20°W (WMM2015 magnetic declination)
0.12° annual change
Runways:2
Longest:12198 × 148 ft (3718 × 45 m), paved

Time
Time Zone:UTC+1 (DST+2)
Local Time:

Weather
METAR:LEZG 022230Z 29025KT CAVOK 13/06 Q1022
TAF:LEZG 021700Z 0218/0318 30015KT 9999 FEW050 TX20/0314Z TN10/0306Z
TEMPO 0218/0318 30020G30KT

Related Locations
Nearby:
Farthest:NZPO: 12283 mi / 19767 km
Porangahau, NZ

Find:

   beyond  
but within

Other Information
Maps:
NOTAMs:
Links:
Sources:

  
flag of Spain
flag of Aragón
  

Airport Diagram

Airport diagram for ZAZ

Airport diagram (OBSOLETE) from NGA

Sectional Chart

Flight Planning
at skyvector.com

Satellite Image

Google Maps Satellite view

 

Copyright © 2004-2016 Karl L. Swartz. All rights reserved.
The Great Circle Mapper name and logo are trademarks of the Great Circle Mapper.
All other trademarks mentioned herein belong to their respective owners.
Please see credits for attibutions and further copyright information.

  Follow gcmap on Facebook Follow gcmap on Twitter Follow gcmap on Google+ GCmap on LinkedIn

hCard Microformat

Geo Microformat